Regional Weather Roundup
Issued by NWS

Home | Current Version | Previous Version | Text Only | Print | Product List | Glossary On
Versions: 1 2 3 4 5 6 7 8 9 10 11 12 13 14 15 16 17 18 19 20 21 22 23 24 25 26 27 28 29 30 31 32 33 34 35 36 37 38 39 40 41 42 43 44 45 46 47 48 49 50
000
ASUS46 KSEW 220010
RWRWA

WASHINGTON REGIONAL WEATHER ROUNDUP
NATIONAL WEATHER SERVICE SEATTLE WA
400 PM PST SUN JAN 21 2018

NOTE:"FAIR" INDICATES FEW OR NO CLOUDS BELOW 12,000 FEET WITH NO
SIGNIFICANT WEATHER AND/OR OBSTRUCTIONS TO VISIBILITY.

WAZ507-509-555>559-220100-
SEATTLE, TACOMA, EVERETT, AND VICINITY

CITY           SKY/WX    TMP DP  RH WIND       PRES   REMARKS
EVERETT        MOCLDY    43  39  86 SE15      29.86R
6HR MIN TEMP:  43; 6HR MAX TEMP:  47; 6HR PCP:  0.02;

BOEING FIELD   MOCLDY    44  39  82 SW13G25   29.90R
6HR MIN TEMP:  44; 6HR MAX TEMP:  52; 6HR PCP:  0.05;

RENTON         CLOUDY    48  40  73 S10       29.89R
6HR MIN TEMP:  48; 6HR MAX TEMP:  54; 6HR PCP: TRACE;

SEATAC AIRPORT CLOUDY    47  37  68 S25G31    29.88R
6HR MIN TEMP:  46; 6HR MAX TEMP:  51; 6HR PCP:  0.01;

JBLM-MCCHORD   LGT RAIN  46  45  93 S18G28    29.91R
6HR MIN TEMP:  45; 6HR MAX TEMP:  51; 6HR PCP:  0.04;

PUYALLUP       MOCLDY    48  37  66 SW8G16    29.90R
BREMERTON      LGT RAIN  42  39  89 S15G22    29.88R
6HR MIN TEMP:  42; 6HR MAX TEMP:  44; 6HR PCP:  0.30;

JBLM-FT LEWIS  RAIN      46  46  99 S17G26    29.90R
6HR MIN TEMP:  45; 6HR MAX TEMP:  51; 6HR PCP:  0.05;

TACOMA NARROWS LGT RAIN  41  37  86 W21G30    29.91R
6HR MIN TEMP:  44; 6HR MAX TEMP:  49; 6HR PCP:  0.07;

$$

WAZ001-503-506-510-514-515-220100-
NORTH INTERIOR

CITY           SKY/WX    TMP DP  RH WIND       PRES   REMARKS
BELLINGHAM     CLOUDY    45  42  89 S9G20     29.80R
6HR MIN TEMP:  45; 6HR MAX TEMP:  50; 6HR PCP:  0.06;

FRIDAY HARBOR  LGT RAIN  44  37  76 VRB7      29.82R
6HR MIN TEMP:  44; 6HR MAX TEMP:  48; 6HR PCP: TRACE;

EASTSOUND      HVY RAIN  45  41  87 S12       29.82R
PORT ANGELES   CLOUDY    41  41 100 CALM      29.82R
6HR MIN TEMP:  41; 6HR MAX TEMP:  48; 6HR PCP:  0.36;

EDIZ HOOK      MOCLDY    43  37  81 CALM      29.82F
6HR MIN TEMP:  43; 6HR MAX TEMP:  49; 6HR PCP:  0.12;

PORT TOWNSEND  FAIR      45  39  81 S8        29.83R
NAS WHIDBEY    CLOUDY    49  41  74 S14       29.86R
6HR MIN TEMP:  48; 6HR MAX TEMP:  52; 6HR PCP:  0.01;

ARLINGTON      MOCLDY    46  38  73 S16       29.86R
6HR MIN TEMP:  45; 6HR MAX TEMP:  49; 6HR PCP:  0.03;

BURLINGTON     CLOUDY    46  39  76 S10G20    29.82S
$$

WAZ020-022-039-040-504-511-512-220100-
SOUTHWEST INTERIOR

CITY           SKY/WX    TMP DP  RH WIND       PRES   REMARKS
SHELTON        CLOUDY    44  40  85 SW10      29.87R
6HR MIN TEMP:  43; 6HR MAX TEMP:  47; 6HR PCP:  0.25;

OLYMPIA        RAIN      45  42  89 W17G23    29.91R FOG
6HR MIN TEMP:  44; 6HR MAX TEMP:  47; 6HR PCP:  0.15;

CHEHALIS       MOCLDY    46  43  87 S8        29.93R
KELSO          MOCLDY    47  43  86 S8        29.97R
6HR MIN TEMP:  45; 6HR MAX TEMP:  49; 6HR PCP:  0.13;

VANCOUVER      CLOUDY    49  45  86 SE7       29.99R
6HR MIN TEMP:  44; 6HR MAX TEMP:  50; 6HR PCP:  0.07;

SCAPPOOSE, OR  MOCLDY    49  43  80 S6        29.97R
6HR MIN TEMP:  45; 6HR MAX TEMP:  50; 6HR PCP:  0.09;

PORTLAND, OR   MOCLDY    48  43  82 S10       30.00R
6HR MIN TEMP:  43; 6HR MAX TEMP:  49; 6HR PCP:  0.05;

$$

WAZ021-516-517-220100-
WASHINGTON COAST

CITY           SKY/WX    TMP DP  RH WIND       PRES   REMARKS
FORKS          MOCLDY    45  37  73 SW17G24   29.81R
6HR MIN TEMP:  43; 6HR MAX TEMP:  47; 6HR PCP:  0.04;

HOQUIAM        PTCLDY    46  41  82 S15       29.89R
6HR MIN TEMP:  43; 6HR MAX TEMP:  50; 6HR PCP:  0.05;

ASTORIA, OR    MOCLDY    48  41  76 SW13      29.93R
6HR MIN TEMP:  47; 6HR MAX TEMP:  51; 6HR PCP:  0.05;

$$

WAZ019-023-024-040-567>569-220100-
CASCADE MOUNTAINS AND COLUMBIA GORGE

CITY           SKY/WX    TMP DP  RH WIND       PRES   REMARKS
STAMPEDE PASS  CLOUDY    31  29  92 CALM      29.82R
6HR MIN TEMP:  28; 6HR MAX TEMP:  31; 6HR PCP:  0.23;

TROUTDALE, OR  MOCLDY    49  43  80 S5        30.00R
6HR MIN TEMP:  43; 6HR MAX TEMP:  49; 6HR PCP:  0.11;

HOOD RIVER, OR DRIZZLE   41  37  87 CALM      29.98R
THE DALLES, OR CLOUDY    45  40  82 NW9       29.97
6HR MIN TEMP:  39; 6HR MAX TEMP:  47; 6HR PCP: TRACE;

$$

WAZ026-027-041>044-520-521-220100-
EAST SLOPES

CITY           SKY/WX    TMP DP  RH WIND       PRES   REMARKS
OMAK           CLOUDY    36  35  96 S14       29.92R
6HR MIN TEMP:  33; 6HR MAX TEMP:  38; 6HR PCP:  0.18;

WENATCHEE      CLOUDY    39  34  82 E7        29.88R
6HR MIN TEMP:  36; 6HR MAX TEMP:  40; 6HR PCP: TRACE;

ELLENSBURG     CLOUDY    41  34  76 SE6       29.88R
6HR MIN TEMP:  39; 6HR MAX TEMP:  42; 6HR PCP: TRACE;

YAKIMA         MOCLDY    48  35  60 VRB3      29.90R
6HR MIN TEMP:  43; 6HR MAX TEMP:  49; 6HR PCP: TRACE;

SUNNYSIDE ARPT CLOUDY    45  35  68 CALM      29.93R
6HR MIN TEMP:  39; 6HR MAX TEMP:  46;

YAKIMA TC      MOCLDY    45  34  67 S10       29.87R
6HR MIN TEMP:  40; 6HR MAX TEMP:  46;

$$

WAZ028-034-035-220100-
COLUMBIA BASIN

CITY           SKY/WX    TMP DP  RH WIND       PRES   REMARKS
EPHRATA        CLOUDY    40  34  79 CALM      29.91R
6HR MIN TEMP:  34; 6HR MAX TEMP:  40; 6HR PCP:  0.01;

MOSES LAKE     CLOUDY    41  38  89 S12       29.91S
6HR MIN TEMP:  37; 6HR MAX TEMP:  41; 6HR PCP:  0.03;

PASCO          CLOUDY    46  38  73 SE13      29.95R
6HR MIN TEMP:  43; 6HR MAX TEMP:  52; 6HR PCP: TRACE;

RICHLAND ARPT  CLOUDY    46  41  83 E8        29.95R
6HR MIN TEMP:  44; 6HR MAX TEMP:  49; 6HR PCP:  0.09;

HERMISTON, OR  CLOUDY    48  37  65 SE6       29.93R
6HR MIN TEMP:  45; 6HR MAX TEMP:  50; 6HR PCP:  0.07;

$$

WAZ036>038-220100-
NORTHEAST WASHINGTON

CITY           SKY/WX    TMP DP  RH WIND       PRES   REMARKS
SPOKANE GEIGER FLURRIES  38  29  70 S13G21    29.94F
6HR MIN TEMP:  36; 6HR MAX TEMP:  39; 6HR PCP: TRACE;

SPOKANE FELTS  CLOUDY    42  27  55 SE9       29.97R
6HR MIN TEMP:  40; 6HR MAX TEMP:  44;

FAIRCHILD AFB  LGT SNOW  35  35  98 S14G21    29.93S WCI  26
6HR MIN TEMP:  35; 6HR MAX TEMP:  37; 6HR PCP: TRACE;

COEURDALENE,ID CLOUDY    39  27  62 S9        29.97S
6HR MIN TEMP:  32; 6HR MAX TEMP:  40;

DEER PARK      CLOUDY    35  32  88 CALM      29.96S
6HR MIN TEMP:  31; 6HR MAX TEMP:  39;

$$

WAZ029>033-220100-
SOUTHEAST WASHINGTON

CITY           SKY/WX    TMP DP  RH WIND       PRES   REMARKS
PULLMAN        CLOUDY    38  30  73 S10       30.00S
6HR MIN TEMP:  35; 6HR MAX TEMP:  38;

LEWISTON, ID   CLOUDY    43  31  62 VRB7      30.02S
6HR MIN TEMP:  39; 6HR MAX TEMP:  44;

WALLA WALLA    CLOUDY    47  34  60 S25G33    29.94F
6HR MIN TEMP:  45; 6HR MAX TEMP:  53; 6HR PCP:  0.04;

PENDLETON, OR  CLOUDY    44  35  70 S17       29.94S
6HR MIN TEMP:  41; 6HR MAX TEMP:  49; 6HR PCP:  0.09;

$$



USA.gov is the U.S. government's official web portal to all federal, state and local government web resources and services.